TimeEDT,TemperatureF,Dew PointF,Humidity,Sea Level PressureIn,VisibilityMPH,Wind Direction,Wind SpeedMPH,Gust SpeedMPH,PrecipitationIn,Events,Conditions,WindDirDegrees,DateUTC
12:54 AM,48.0,37.9,68,30.04,10.0,South,8.1,-,N/A,,Overcast,190,2012-03-25 04:54:00
1:54 AM,46.9,37.9,71,30.03,10.0,SSE,4.6,-,N/A,,Overcast,160,2012-03-25 05:54:00
2:54 AM,46.9,37.9,71,30.02,10.0,SSE,4.6,-,0.00,,Overcast,160,2012-03-25 06:54:00
3:54 AM,46.0,36.0,68,29.99,10.0,ESE,5.8,-,0.00,,Overcast,110,2012-03-25 07:54:00
4:54 AM,46.0,37.0,71,29.98,10.0,Calm,Calm,-,0.00,Rain,Light Rain,0,2012-03-25 08:54:00
5:54 AM,45.0,37.0,74,29.98,10.0,ESE,4.6,-,0.00,Rain,Light Rain,120,2012-03-25 09:54:00
6:54 AM,45.0,36.0,71,29.96,10.0,East,5.8,-,0.00,Rain,Light Rain,100,2012-03-25 10:54:00
7:54 AM,45.0,37.9,76,29.96,10.0,East,8.1,-,0.00,Rain,Light Rain,100,2012-03-25 11:54:00
8:54 AM,45.0,37.0,74,29.95,10.0,East,9.2,-,0.00,,Overcast,100,2012-03-25 12:54:00
9:54 AM,46.0,37.9,73,29.94,10.0,ESE,8.1,-,N/A,,Overcast,110,2012-03-25 13:54:00
10:54 AM,46.0,37.0,71,29.92,10.0,East,8.1,-,N/A,,Overcast,90,2012-03-25 14:54:00
11:54 AM,46.0,36.0,68,29.91,10.0,East,10.4,-,N/A,,Overcast,90,2012-03-25 15:54:00
12:28 PM,46.4,35.6,66,29.90,10.0,East,10.4,-,N/A,,Overcast,90,2012-03-25 16:28:00
12:54 PM,46.0,37.9,73,29.89,10.0,ENE,9.2,-,N/A,,Overcast,70,2012-03-25 16:54:00
1:54 PM,46.0,37.9,73,29.87,10.0,ENE,10.4,-,N/A,,Overcast,70,2012-03-25 17:54:00
2:54 PM,46.0,37.9,73,29.85,10.0,East,11.5,-,N/A,,Overcast,80,2012-03-25 18:54:00
3:25 PM,44.6,39.2,81,29.84,2.5,East,10.4,-,0.00,Rain,Light Rain,90,2012-03-25 19:25:00
3:33 PM,44.6,39.2,81,29.83,3.0,East,10.4,-,0.00,Rain,Light Rain,90,2012-03-25 19:33:00
3:54 PM,43.0,39.9,89,29.83,5.0,East,9.2,-,0.00,,Overcast,90,2012-03-25 19:54:00
4:02 PM,44.6,39.2,81,29.82,7.0,East,10.4,-,N/A,,Overcast,90,2012-03-25 20:02:00
4:54 PM,43.0,39.9,89,29.81,3.0,ENE,9.2,-,0.00,,Overcast,70,2012-03-25 20:54:00
5:28 PM,42.8,39.2,87,29.80,2.5,East,8.1,-,0.00,Rain,Light Rain,90,2012-03-25 21:28:00
5:54 PM,43.0,39.9,89,29.80,5.0,East,8.1,-,0.01,,Overcast,80,2012-03-25 21:54:00
6:33 PM,42.8,39.2,87,29.81,7.0,East,6.9,-,N/A,,Overcast,90,2012-03-25 22:33:00
6:54 PM,42.1,39.0,89,29.80,7.0,East,6.9,-,N/A,,Overcast,90,2012-03-25 22:54:00
7:54 PM,42.1,39.0,89,29.78,10.0,East,5.8,-,N/A,,Overcast,90,2012-03-25 23:54:00
8:54 PM,43.0,39.0,86,29.78,10.0,NNE,5.8,-,N/A,,Overcast,20,2012-03-26 00:54:00
9:54 PM,43.0,39.9,89,29.77,10.0,NNE,3.5,-,N/A,,Overcast,30,2012-03-26 01:54:00
10:01 PM,42.8,39.2,87,29.76,10.0,Calm,Calm,-,N/A,,Overcast,0,2012-03-26 02:01:00
10:54 PM,43.0,39.0,86,29.73,10.0,Calm,Calm,-,N/A,,Overcast,0,2012-03-26 02:54:00
11:54 PM,44.1,39.9,85,29.72,9.0,North,5.8,-,N/A,,Overcast,350,2012-03-26 03:54:00